This demonstration page uses our WeatherBlox Daily Observations layout. Learn more.

Left ArrowRight Arrow

39.01783, -85.05884

Hourly Observations for November 28, 2021

Temp ( °F °C ) Dew Point ( °F °C ) Humidity (%) Winds ( mph kmh ) Pressure ( in mb ) Visibility ( mi km ) Precip ( " mm )
12:52 am 00:52 Clear 42 5.6 30 -1.1 62 62 W 12 19 29.87 1011 10 16 N/A
1:52 am 01:52 Clear 39 3.9 30 -1.1 70 70 W 9 15 29.88 1012 10 16 N/A
2:52 am 02:52 Clear 39 3.9 31 -0.6 73 73 W 9 15 29.89 1012 10 16 N/A
3:52 am 03:52 Clear 36 2.2 30 -1.1 79 79 W 8 13 29.91 1013 10 16 N/A
4:52 am 04:52 Clear 36 2.2 30 -1.1 79 79 WNW 7 11 29.93 1014 10 16 N/A
5:52 am 05:52 Clear 35 1.7 29 -1.7 78 78 WNW 12 19 29.96 1015 10 16 N/A
6:52 am 06:52 Partly Cloudy 35 1.7 30 -1.1 82 82 WNW 6 9 29.98 1015 9 14 N/A
6:58 am 06:58 Mostly Cloudy 34 1.1 29 -1.7 82 82 W 6 9 30.01 1016 9 14 N/A
7:52 am 07:52 Cloudy with Haze 35 1.7 29 -1.7 78 78 NW 10 17 29.98 1015 6 10 N/A
8:17 am 08:17 Cloudy with Haze 35 1.7 29 -1.7 78 78 NW 10 17 30.02 1017 6 10 N/A
8:52 am 08:52 Cloudy with Haze 35 1.7 29 -1.7 78 78 WNW 9 15 30.01 1016 6 10 N/A
9:30 am 09:30 Hazy 36 2.2 29 -1.7 76 76 WNW 12 19 30.04 1017 6 10 N/A
9:52 am 09:52 Partly Cloudy 36 2.2 28 -2.2 73 73 W 9 15 30.01 1016 7 11 N/A
10:52 am 10:52 Mostly Sunny 38 3.3 28 -2.2 68 68 WNW 9 15 30.02 1017 9 14 N/A
11:52 am 11:52 Mostly Sunny 41 5 29 -1.7 62 62 W 10 17 29.99 1016 10 16 N/A
12:52 pm 12:52 Sunny 44 6.7 28 -2.2 53 53 W 15 24 29.98 1015 10 16 N/A
1:52 pm 13:52 Sunny 45 7.2 23 -5 42 42 W 20 31 29.97 1015 10 16 N/A
2:52 pm 14:52 Sunny 46 7.8 23 -5 40 40 W 21 33 29.96 1014 10 16 N/A
3:52 pm 15:52 Partly Cloudy 45 7.2 20 -6.7 37 37 WNW 15 24 29.97 1015 10 16 N/A
4:52 pm 16:52 Partly Cloudy 43 6.1 15 -9.4 32 32 WNW 20 31 30.00 1016 10 16 N/A
5:52 pm 17:52 Partly Cloudy 40 4.4 17 -8.3 40 40 NNW 21 33 30.03 1017 10 16 N/A
6:52 pm 18:52 Partly Cloudy 35 1.7 21 -6.1 57 57 NNW 21 33 30.07 1018 10 16 N/A
7:52 pm 19:52 Mostly Cloudy 34 1.1 18 -7.8 52 52 NNW 14 22 30.09 1019 10 16 N/A
8:52 pm 20:52 Partly Cloudy 32 undefined 18 -7.8 56 56 NW 9 15 30.11 1020 10 16 N/A
9:52 pm 21:52 Partly Cloudy 31 -0.6 18 -7.8 59 59 NW 9 15 30.12 1020 10 16 N/A
10:52 pm 22:52 Partly Cloudy 29 -1.7 19 -7.2 66 66 WNW 7 11 30.12 1020 10 16 N/A
11:52 pm 23:52 Mostly Clear 29 -1.7 20 -6.7 69 69 WNW 6 9 30.13 1020 10 16 N/A

Powered by AerisWeather